This demonstration page uses our WeatherBlox Daily Observations layout. Learn more.

Left ArrowRight Arrow

39.08367, -84.50855

Hourly Observations for May 16, 2017

Temp ( °F °C ) Dew Point ( °F °C ) Humidity (%) Winds ( mph kmh ) Pressure ( in mb ) Visibility ( mi km ) Precip ( " mm )
12:53 am 00:53 Clear 62 16.7 61 16.1 96 96 N N/A 29.99 1016 8 12.87472 N/A
1:53 am 01:53 Clear with Mist and Fog 60 15.6 60 15.6 100 100 N N/A 29.98 1015 3 4.82802 N/A
1:55 am 01:55 Clear with Mist and Fog 60 15.6 60 15.6 100 100 N N/A 29.97 1015 1.5 2.41401 N/A
2:05 am 02:05 Clear with Mist and Fog 60 15.6 60 15.6 100 100 N N/A 29.97 1015 3 4.82802 N/A
2:40 am 02:40 Clear with Mist and Fog 59 15 59 15 100 100 WSW 5 7 29.94 1014 1.5 2.41401 N/A
2:50 am 02:50 Clear with Mist and Fog 57 14 57 14 100 100 W 3 6 29.97 1015 4 6.43736 N/A
2:53 am 02:53 Clear 58 14.4 58 14.4 100 100 N N/A 29.97 1015 8 12.87472 N/A
3:53 am 03:53 Clear 59 15 59 15 100 100 N N/A 29.97 1015 9 14.48406 N/A
4:53 am 04:53 Clear 61 16.1 57 13.9 87 87 N N/A 29.96 1015 10 16.0934 N/A
5:53 am 05:53 Clear 57 13.9 57 13.9 100 100 N N/A 29.98 1015 7 11.26538 N/A
6:02 am 06:02 Clear with Mist and Fog 56 13.3 56 13.3 100 100 N N/A 30 1016 1.5 2.41401 N/A
6:13 am 06:13 Clear with Mist and Fog 57 13.9 57 13.9 100 100 N N/A 30 1016 4 6.43736 N/A
6:53 am 06:53 Sunny 57 13.9 57 13.9 100 100 N N/A 30.01 1016 10 16.0934 N/A
7:53 am 07:53 Sunny 61 16.1 60 15.6 97 97 SW 5 7 30.01 1016 8 12.87472 N/A
8:53 am 08:53 Sunny 67 19.4 62 16.7 84 84 SSW 5 7 30 1016 10 16.0934 N/A
9:53 am 09:53 Sunny 73 22.8 63 17.2 71 71 S 3 6 30 1016 10 16.0934 N/A
10:53 am 10:53 Sunny 78 25.6 64 17.8 62 62 SSE 6 9 29.99 1016 10 16.0934 N/A
11:53 am 11:53 Sunny 82 27.8 64 17.8 55 55 SSW 17 28 29.98 1015 10 16.0934 N/A
12:53 pm 12:53 Sunny 83 28.3 63 17.2 51 51 SW 16 26 29.98 1015 10 16.0934 N/A
1:53 pm 13:53 Mostly Sunny 84 28.9 65 18.3 53 53 SW 10 17 29.97 1015 10 16.0934 N/A
2:53 pm 14:53 Mostly Sunny 85 29.4 65 18.3 51 51 WSW 14 22 29.96 1015 10 16.0934 N/A
3:53 pm 15:53 Sunny 85 29.4 62 16.7 46 46 SSW 9 15 29.93 1014 10 16.0934 N/A
4:53 pm 16:53 Sunny 85 29.4 62 16.7 46 46 S 13 20 29.92 1013 10 16.0934 N/A
5:53 pm 17:53 Sunny 84 28.9 64 17.8 51 51 S 14 22 29.91 1013 10 16.0934 N/A
6:53 pm 18:53 Sunny 83 28.3 63 17.2 51 51 SSW 13 20 29.9 1013 10 16.0934 N/A
7:53 pm 19:53 Sunny 78 25.6 65 18.3 64 64 S 9 15 29.9 1013 10 16.0934 N/A
8:53 pm 20:53 Clear 74 23.3 63 17.2 69 69 SSW 7 11 29.9 1012 10 16.0934 N/A
9:53 pm 21:53 Clear 71 21.7 63 17.2 76 76 WSW 5 7 29.9 1013 10 16.0934 N/A
10:53 pm 22:53 Clear 68 20 64 17.8 87 87 S 3 6 29.91 1013 10 16.0934 N/A
11:53 pm 23:53 Clear 67 19.4 63 17.2 87 87 N N/A 29.9 1013 10 16.0934 N/A

Powered by AerisWeather